Stations météo

Publicité
Chartres, France (7143): Température de l'air & dewpoint: 22.05.2018 11:00:00 - 28.05.2018 11:00:00 (CEST)Chartres, France (7143): Température de l'air 5cm: 22.05.2018 11:00:00 - 28.05.2018 11:00:00 (CEST)Chartres, France (7143): Température de l'air -20cm & Température de l'air -100cm: 22.05.2018 11:00:00 - 28.05.2018 11:00:00 (CEST)Chartres, France (7143): Vitesse du vent & gusts: 22.05.2018 11:00:00 - 28.05.2018 11:00:00 (CEST)Chartres, France (7143): Direction du vent: 22.05.2018 11:00:00 - 28.05.2018 11:00:00 (CEST)Chartres, France (7143): reduced air pressure: 22.05.2018 11:00:00 - 28.05.2018 11:00:00 (CEST)Chartres, France (7143): visibility: 22.05.2018 11:00:00 - 28.05.2018 11:00:00 (CEST)Chartres, France (7143): Ensoleillement: 22.05.2018 11:00:00 - 28.05.2018 11:00:00 (CEST)Chartres, France (7143): Quantités de précipitations: 22.05.2018 11:00:00 - 28.05.2018 11:00:00 (CEST)
Date & Time tt [°C] td [°C] tt 5cm [°C] tt -20cm [°C] tt -100cm [°C] ff [km/h] ff [knt] fx [km/h] fx [knt] dd ppp [hPa] vv [km] sd [min] rr [mm]
28.05.2018 11:00:00 23,2 14,2 26,8 18,6 14,5 8 5 12 7 E 1016,3 20 29 0,0
28.05.2018 10:00:00 22,4 20,1 23,8 18,6 14,5 4 2 8 5 E 1016,2 20 41 0,0
28.05.2018 09:00:00 19,4 19,4 20,9 18,6 14,5 5 3 9 5 NE 1016,2 20 8 0,0
28.05.2018 08:00:00 18,9 18,9 17,0 18,7 14,5 0 0 7 4 N 1016,2 20 34 0,0
28.05.2018 07:00:00 16,5 16,5 13,0 18,9 14,5 2 1 6 3 N 1016,1 19 0 0,0
28.05.2018 06:00:00 15,5 15,5 13,1 19,0 14,5 0 0 9 5 N 1015,9 15 0 0,0
28.05.2018 05:00:00 17,3 17,3 15,5 19,1 14,5 4 2 8 5 SE 1015,9 20 0 0,0
28.05.2018 04:00:00 18,0 18,0 17,1 19,2 14,5 0 0 8 4 N 1015,7 20 0 0,0
28.05.2018 03:00:00 18,0 18,0 17,2 19,3 14,4 4 2 8 4 SSW 1015,9 20 0 0,0
28.05.2018 02:00:00 17,9 17,9 16,4 19,5 14,4 4 2 7 4 SSW 1016,1 20 0 0,0
28.05.2018 01:00:00 17,7 17,7 15,5 19,7 14,4 0 0 4 2 N 1016,0 20 0 0,0
28.05.2018 00:00:00 18,2 18,2 16,7 19,8 14,4 3 2 10 6 SSE 1016,0 20 0 0,0
27.05.2018 23:00:00 19,1 19,1 18,1 19,9 14,4 5 3 10 5 SE 1015,7 20 0 0,0
27.05.2018 22:00:00 20,7 20,7 19,5 19,9 14,4 5 3 11 6 E 1014,8 20 14 0,0
27.05.2018 21:00:00 22,4 20,9 21,3 19,9 14,4 3 2 14 8 S 1014,8 19 41 0,0
27.05.2018 20:00:00 23,1 19,9 20,8 19,9 14,4 6 3 13 7 SE 1014,4 19 9 0,2
27.05.2018 19:00:00 22,4 20,9 20,2 19,9 14,4 5 3 12 7 S 1014,3 20 0 0,2
27.05.2018 18:00:00 24,8 15,1 25,9 19,7 14,4 3 1 11 6 S 1014,2 20 0 0,0
27.05.2018 17:00:00 25,8 14,6 28,6 19,5 14,4 5 3 15 8 S 1014,5 20 40 0,0
27.05.2018 16:00:00 25,8 14,6 28,4 19,2 14,4 8 4 21 12 S 1014,7 20 23 0,0
27.05.2018 15:00:00 26,3 15,0 29,4 18,8 14,3 7 4 22 12 SE 1014,8 20 56 0,0
27.05.2018 14:00:00 25,8 14,3 30,2 18,4 14,3 9 5 19 10 SSE 1015,3 20 56 0,0
27.05.2018 13:00:00 25,0 13,9 31,0 18,1 14,3 9 5 23 13 S 1015,6 20 58 0,0
27.05.2018 12:00:00 24,5 15,7 31,3 17,9 14,3 10 5 18 10 S 1016,1 20 60 0,0
27.05.2018 11:00:00 23,6 15,4 30,6 17,7 14,3 5 3 14 8 SSW 1015,9 20 60 0,0
27.05.2018 10:00:00 22,1 16,4 25,7 17,7 14,3 4 2 10 5 S 1015,7 20 57 0,0
27.05.2018 09:00:00 20,4 18,7 19,7 17,8 14,3 0 0 6 4 N 1015,6 20 60 0,0
27.05.2018 08:00:00 16,3 16,3 14,8 17,8 14,3 3 2 10 5 S 1015,6 20 17 0,0
27.05.2018 07:00:00 14,6 14,6 12,6 18,0 14,3 0 0 5 3 N 1015,3 20 1 0,0
27.05.2018 06:00:00 15,3 15,3 13,2 18,0 14,3 3 1 7 4 ENE 1014,7 20 0 0,0
27.05.2018 05:00:00 15,8 15,8 15,1 18,2 14,3 4 2 30 16 WNW 1014,5 20 0 0,0
27.05.2018 04:00:00 16,4 16,4 15,4 18,3 14,3 10 5 23 12 WSW 1015,3 20 0 0,0
27.05.2018 03:00:00 15,8 15,8 13,6 18,4 14,3 10 5 32 17 WSW 1014,5 20 0 0,0
27.05.2018 02:00:00 15,5 15,5 13,9 18,6 14,3 4 2 9 5 N 1014,4 20 0 0,0
27.05.2018 01:00:00 16,2 16,2 15,2 18,7 14,2 5 3 10 6 NNE 1015,1 20 0 0,0
27.05.2018 00:00:00 16,4 16,4 15,3 18,8 14,3 5 3 11 6 NNW 1015,6 20 0 0,0
26.05.2018 23:00:00 17,2 17,2 16,4 18,9 14,2 6 3 13 7 NE 1015,4 20 0 0,0
26.05.2018 22:00:00 17,9 17,9 16,7 18,9 14,2 5 3 23 12 N 1015,2 20 0 0,0
26.05.2018 21:00:00 20,2 17,0 19,7 19,0 14,2 14 7 35 19 W 1015,1 20 0 0,0
26.05.2018 20:00:00 24,5 17,7 24,6 18,9 14,2 10 6 31 17 ESE 1012,9 20 8 0,0
26.05.2018 19:00:00 26,0 16,8 26,6 18,8 14,2 19 10 33 18 ESE 1013,0 20 54 0,0
26.05.2018 18:00:00 25,7 16,3 26,6 18,6 14,2 14 8 32 17 ESE 1013,1 20 10 0,0
26.05.2018 17:00:00 26,2 15,9 27,0 18,4 14,2 15 8 32 17 ESE 1013,4 20 26 0,0
26.05.2018 16:00:00 26,8 15,2 28,3 18,1 14,2 19 11 38 21 SE 1013,6 20 54 0,0
26.05.2018 15:00:00 26,9 15,9 30,1 17,8 14,2 18 10 33 18 SE 1013,7 20 54 0,0
26.05.2018 14:00:00 25,5 19,6 25,7 17,6 14,2 15 8 36 20 SE 1013,8 19 29 0,0
26.05.2018 13:00:00 24,4 19,5 28,0 17,3 14,2 15 8 32 17 SE 1014,0 19 55 0,0
26.05.2018 12:00:00 23,9 21,8 26,9 17,0 14,2 13 7 24 13 SE 1014,1 20 60 0,0
26.05.2018 11:00:00 22,2 21,5 25,8 17,0 14,2 14 8 24 13 SE 1014,2 19 60 0,0
26.05.2018 10:00:00 20,5 20,5 21,1 16,9 14,2 12 6 24 13 E 1014,2 19 37 0,0
26.05.2018 09:00:00 17,7 17,7 16,4 17,0 14,2 11 6 24 13 E 1014,7 20 18 0,0
26.05.2018 08:00:00 15,5 15,5 14,5 17,0 14,2 6 3 16 8 ENE 1014,6 8 27 0,2
26.05.2018 07:00:00 14,4 14,4 14,1 17,1 14,2 7 4 12 6 NNE 1014,7 3,1 14 0,0
26.05.2018 06:00:00 14,4 14,4 14,3 17,2 14,1 6 3 12 7 N 1014,8 0,3 0 0,0
26.05.2018 05:00:00 14,5 14,5 14,3 17,3 14,1 6 4 13 7 N 1015,2 0,3 0 0,0
26.05.2018 04:00:00 14,6 14,6 13,9 17,4 14,2 5 3 11 6 NNE 1015,4 2,5 0 0,0
26.05.2018 03:00:00 14,6 14,6 13,9 17,5 14,1 8 4 13 7 NNE 1015,7 3,5 0 0,0
26.05.2018 02:00:00 14,8 14,8 14,3 17,6 14,1 6 4 16 9 N 1016,2 3,8 0 0,0
26.05.2018 01:00:00 15,1 15,1 14,2 17,7 14,1 6 3 10 5 N 1016,6 4,4 0 0,0
26.05.2018 00:00:00 15,5 15,5 14,9 17,8 14,1 6 3 18 10 NNE 1016,5 9 0 0,0
25.05.2018 23:00:00 15,6 15,6 15,2 17,9 14,1 11 6 29 15 NNE 1016,5 12 0 1,0
25.05.2018 22:00:00 15,7 15,7 15,3 17,9 14,1 11 6 29 16 NNE 1016,4 11 0 0,4
25.05.2018 21:00:00 16,5 16,5 16,2 18,0 14,1 16 9 30 16 NNE 1015,7 9 0 0,0
25.05.2018 20:00:00 16,5 16,5 16,2 18,0 14,1 18 10 35 19 NNE 1016,0 17 0 1,2
25.05.2018 19:00:00 17,0 17,0 16,5 18,0 14,1 16 9 37 20 N 1015,9 5 0 1,8
25.05.2018 18:00:00 19,4 19,4 19,5 17,9 14,1 13 7 23 12 NNW 1015,3 20 0 0,4
25.05.2018 17:00:00 22,1 16,4 23,5 17,7 14,1 10 5 22 12 N 1014,7 20 1 0,0
25.05.2018 16:00:00 25,3 14,7 28,3 17,4 14,1 9 5 21 11 ESE 1015,0 20 21 0,0
25.05.2018 15:00:00 24,7 14,8 27,4 17,2 14,1 8 4 20 11 ESE 1015,4 20 7 0,0
25.05.2018 14:00:00 24,9 15,2 29,9 16,9 14,1 12 7 21 12 E 1015,8 20 36 0,0
25.05.2018 13:00:00 23,5 16,0 30,6 16,6 14,1 8 4 23 12 NNE 1016,1 20 53 0,0
25.05.2018 12:00:00 22,1 19,3 27,7 16,5 14,1 9 5 18 10 NNE 1016,3 13 57 0,0
25.05.2018 11:00:00 18,8 18,6 20,9 16,4 14,0 9 5 21 11 NNE 1016,6 8 57 0,0
25.05.2018 10:00:00 15,9 15,9 17,0 16,5 14,1 10 6 19 10 N 1017,2 3,2 34 0,0
25.05.2018 09:00:00 13,4 13,4 13,9 16,5 14,1 10 5 17 9 N 1017,3 2,1 0 0,0
25.05.2018 08:00:00 12,2 12,2 11,6 16,6 14,1 9 5 14 8 N 1017,4 1,2 11 0,0
25.05.2018 07:00:00 11,3 11,3 9,8 16,7 14,0 8 4 11 6 N 1017,2 1,1 11 0,0
25.05.2018 06:00:00 11,6 11,6 9,4 16,8 14,0 6 3 13 7 N 1016,9 1,6 0 0,0
25.05.2018 05:00:00 12,1 12,1 9,5 16,9 14,0 5 3 9 5 N 1016,9 2,1 0 0,2
25.05.2018 04:00:00 12,7 12,7 10,6 17,0 14,0 6 3 10 5 N 1016,7 2,3 0 0,0
25.05.2018 03:00:00 13,2 13,2 11,2 17,1 14,0 5 3 10 6 N 1016,7 2,3 0 0,0
25.05.2018 02:00:00 13,8 13,8 11,1 17,2 14,0 4 2 13 7 N 1016,8 3,7 0 0,0
25.05.2018 01:00:00 14,5 14,5 11,8 17,3 14,0 6 3 13 7 N 1017,0 6 0 0,0
25.05.2018 00:00:00 15,0 15,0 12,4 17,4 14,0 6 3 12 6 N 1017,4 8 0 0,0
24.05.2018 23:00:00 16,7 16,7 13,2 17,4 14,0 8 4 14 8 N 1017,1 14 0 0,0
24.05.2018 22:00:00 18,3 15,7 13,9 17,4 14,0 3 1 11 6 NNW 1016,3 20 11 0,0
24.05.2018 21:00:00 20,6 15,4 18,7 17,4 14,0 9 5 16 9 N 1015,9 13 60 0,0
24.05.2018 20:00:00 22,2 14,1 21,8 17,3 14,0 5 3 10 5 NNW 1015,4 19 60 0,0
24.05.2018 19:00:00 22,8 13,6 25,3 17,2 14,0 7 4 16 9 W 1015,4 17 60 0,0
24.05.2018 18:00:00 22,4 13,5 23,8 17,0 13,9 7 4 14 8 WSW 1015,4 19 51 0,0
24.05.2018 17:00:00 21,3 15,6 23,5 16,9 13,9 5 3 11 6 SSW 1015,6 18 15 0,0
24.05.2018 16:00:00 20,8 16,0 23,9 16,7 13,9 2 1 11 6 NNE 1016,4 12 26 0,0
24.05.2018 15:00:00 20,5 15,1 24,7 16,6 13,9 4 2 10 5 ESE 1016,8 12 34 0,0
24.05.2018 14:00:00 19,3 17,3 23,0 16,5 13,9 4 2 12 6 WNW 1017,6 9 28 0,0
24.05.2018 13:00:00 17,2 17,2 19,8 16,4 13,9 6 3 11 6 N 1018,1 4,8 0 0,0
24.05.2018 12:00:00 15,5 15,5 18,8 16,4 13,9 6 3 12 7 NNE 1018,4 3,4 0 0,0
24.05.2018 11:00:00 14,8 14,8 18,0 16,4 13,9 6 3 13 7 N 1018,3 2,0 0 0,0
24.05.2018 10:00:00 14,3 14,3 16,4 16,4 13,9 9 5 13 7 N 1018,4 1,4 0 0,0
24.05.2018 09:00:00 13,6 13,6 15,1 16,5 13,9 4 2 9 5 N 1018,4 0,4 0 0,0
24.05.2018 08:00:00 13,2 13,2 14,2 16,5 13,9 6 4 11 6 NNE 1018,2 0,1 0 0,0
24.05.2018 07:00:00 13,2 13,2 13,3 16,6 13,9 9 5 16 9 N 1018,2 0,1 0 0,0
24.05.2018 06:00:00 13,1 13,1 11,3 16,7 13,9 9 5 15 8 N 1018,0 0,5 0 0,0
24.05.2018 05:00:00 12,9 12,9 11,3 16,8 13,9 5 3 10 6 N 1018,0 1,7 0 0,0
24.05.2018 04:00:00 13,3 13,3 12,1 16,9 13,9 5 3 11 6 N 1018,2 1,9 0 0,0
24.05.2018 03:00:00 13,4 13,4 11,9 17,0 13,9 6 3 10 5 N 1018,5 2,1 0 0,0
24.05.2018 02:00:00 13,4 13,4 11,3 17,1 13,9 4 2 16 9 N 1018,8 2,4 0 0,0
24.05.2018 01:00:00 13,5 13,5 11,1 17,2 13,9 6 4 14 8 NNE 1018,9 2,9 0 0,0
24.05.2018 00:00:00 13,5 13,5 11,5 17,2 13,9 6 3 14 8 N 1018,8 3,2 0 0,0
23.05.2018 23:00:00 14,6 14,6 12,8 17,3 13,9 9 5 18 10 N 1019,0 4,3 0 0,0
23.05.2018 22:00:00 15,9 15,9 14,2 17,3 13,9 8 4 19 11 N 1018,5 7 10 0,0
23.05.2018 21:00:00 17,5 16,5 17,0 17,3 13,9 11 6 24 13 NNE 1018,1 9 60 0,0
23.05.2018 20:00:00 19,0 15,9 19,3 17,2 13,8 14 8 29 16 NNE 1017,6 12 60 0,0
23.05.2018 19:00:00 20,5 15,5 22,1 17,1 13,8 18 10 27 14 NNE 1017,0 17 46 0,0
23.05.2018 18:00:00 20,9 15,4 22,6 16,9 13,8 15 8 27 14 NNE 1017,0 19 43 0,0
23.05.2018 17:00:00 21,3 14,9 23,2 16,7 13,8 9 5 25 13 N 1017,2 18 31 0,0
23.05.2018 16:00:00 21,0 16,4 26,1 16,5 13,8 12 6 25 13 NNE 1017,7 15 41 0,0
23.05.2018 15:00:00 19,9 16,5 29,0 16,3 13,8 15 8 26 14 NNE 1018,2 11 58 0,0
23.05.2018 14:00:00 18,8 18,8 25,2 16,2 13,8 10 6 20 11 NNE 1018,6 6 45 0,0
23.05.2018 13:00:00 16,1 16,1 21,8 16,1 13,8 11 6 23 12 N 1019,2 4,1 20 0,0
23.05.2018 12:00:00 14,4 14,4 17,2 16,1 13,8 14 7 24 13 NNE 1019,4 4,0 4 0,0
23.05.2018 11:00:00 13,5 13,5 16,1 16,1 13,8 12 6 23 12 NNE 1019,4 3,7 0 0,0
23.05.2018 10:00:00 13,0 13,0 14,7 16,1 13,8 12 7 25 14 NNE 1019,3 2,9 0 0,0
23.05.2018 09:00:00 12,3 12,3 12,4 16,3 13,8 11 6 22 12 N 1018,9 2,3 0 0,0
23.05.2018 08:00:00 11,5 11,5 10,1 16,3 13,8 10 6 18 10 N 1018,5 2,0 0 0,0
23.05.2018 07:00:00 10,9 10,9 9,5 16,4 13,8 8 5 16 9 N 1018,0 2,7 0 0,0
23.05.2018 06:00:00 10,9 10,9 9,4 16,5 13,8 9 5 16 8 N 1017,5 3,4 0 0,0
23.05.2018 05:00:00 11,3 11,3 9,4 16,6 13,8 8 5 18 10 N 1017,1 5 0 0,0
23.05.2018 04:00:00 11,6 11,6 10,1 16,8 13,8 11 6 20 11 N 1017,1 8 0 0,0
23.05.2018 03:00:00 11,8 11,8 10,3 16,9 13,8 8 4 14 7 NNW 1016,7 10 0 0,0
23.05.2018 02:00:00 12,7 12,7 10,3 17,0 13,8 8 4 17 9 NNW 1016,5 13 0 0,0
23.05.2018 01:00:00 13,3 13,3 10,5 17,1 13,8 4 2 9 5 NNW 1016,6 15 0 0,0
23.05.2018 00:00:00 13,7 13,7 10,6 17,2 13,7 4 2 10 5 N 1016,4 16 0 0,0
22.05.2018 23:00:00 13,9 13,9 11,0 17,3 13,8 4 2 10 6 NNW 1016,1 20 0 0,0
22.05.2018 22:00:00 15,0 15,0 13,3 17,4 13,7 3 2 12 7 N 1015,5 15 9 0,2
22.05.2018 21:00:00 15,3 15,3 14,3 17,4 13,7 2 1 13 7 SW 1015,3 9 11 4,0
22.05.2018 20:00:00 15,7 15,7 14,4 17,4 13,7 6 4 26 14 ENE 1015,3 18 0 10,4
22.05.2018 19:00:00 20,6 10,4 20,9 17,3 13,7 10 6 26 14 S 1013,0 19 13 0,0
22.05.2018 18:00:00 24,3 10,6 25,9 17,1 13,7 7 4 22 12 NNW 1012,6 20 48 0,0
22.05.2018 17:00:00 24,2 10,1 29,2 16,9 13,7 8 4 26 14 NNW 1012,2 20 56 0,0
22.05.2018 16:00:00 23,6 9,9 31,5 16,6 13,7 11 6 23 13 NNW 1012,7 20 56 0,0
22.05.2018 15:00:00 23,6 11,3 29,4 16,4 13,7 9 5 22 12 N 1012,8 20 49 0,0
22.05.2018 14:00:00 22,0 12,3 27,5 16,2 13,7 10 5 20 11 NNW 1013,1 20 47 0,0
22.05.2018 13:00:00 21,6 12,7 29,2 16,0 13,7 9 5 19 11 N 1013,4 18 54 0,0
22.05.2018 12:00:00 20,6 12,6 27,4 15,8 13,7 8 4 19 11 N 1013,5 19 58 0,0
22.05.2018 11:00:00 19,4 14,2 20,9 15,7 13,7 8 5 15 8 N 1013,4 16 60 0,0

tt = Température de l'air
td = dewpoint
tt 5cm = Température de l'air 5cm
tt -20cm = Température de l'air -20cm
tt -100cm = Température de l'air -100cm
ff = Vitesse du vent
fx = gusts
dd = Direction du vent
ppp = reduced air pressure
vv = visibility
sd = Ensoleillement
rr = Quantités de précipitations

stations d'obs. à proximité